Papa, Hungary

3:49 AM CEST on April 28, 2017 (GMT +0200)
Papa

Weather History for LHPA - December, 2012

Change the Weather History Date:

Monday, December 24, 2012

  Actual Average Record
Temperature  
Mean Temperature 40 °F -  
Max Temperature 50 °F - - ()
Min Temperature 30 °F - - ()
Degree Days  
Heating Degree Days 25    
Moisture  
Dew Point 36 °F    
Average Humidity 90    
Maximum Humidity 100    
Minimum Humidity 66    
Precipitation  
Precipitation 0.00 in - - ()
Sea Level Pressure  
Sea Level Pressure 30.01 in    
Wind  
Wind Speed 4 mph ()    
Max Wind Speed 16 mph    
Max Gust Speed -    
Visibility 2.6 miles    
Events Rain    
T = Trace of Precipitation, MM = Missing Value Source: Averaged Metar Reports

Daily Weather History Graph

Daily Weather History Graph

Search for Another Location

Airport or City:

Trip Planner

Search our weather history database for the weather conditions in past years. The results will help you decide how hot, cold, wet, or windy it might be!

Date:

Astronomy

Dec. 24, 2012 Rise Set
Actual Time 7:35 AM CET 4:04 PM CET
Civil Twilight 6:59 AM CET 4:40 PM CET
Nautical Twilight 6:20 AM CET 5:19 PM CET
Astronomical Twilight 5:43 AM CET 5:56 PM CET
Moon 1:25 PM CET (12/24) 3:50 AM CET (12/24)
Length of Visible Light 9h 40m
Length of Day
8h 29m
Waxing Gibbous, 86% of the Moon is Illuminated
Dec 24
Waxing Gibbous
Dec 28
Full
Jan 5
Last Quarter
Jan 11
New
Jan 19
First Quarter

Hourly Weather History & Observations

Time (CET) Temp. Windchill Dew Point Humidity Pressure Visibility Wind Dir Wind Speed Gust Speed Precip Events Conditions
12:03 AM 32.0 °F - 32.0 °F 100% 30.06 in 1.2 mi Calm Calm - N/A Rain Light Rain
12:15 AM 32.0 °F - 32.0 °F 100% 30.06 in 1.2 mi Calm Calm - N/A Rain Light Rain
12:45 AM 32.0 °F - 32.0 °F 100% 30.06 in 1.2 mi Calm Calm - N/A Rain Light Rain
1:15 AM 32.0 °F - 32.0 °F 100% 30.06 in 1.2 mi Calm Calm - N/A Rain Light Rain
1:23 AM 32.0 °F - 32.0 °F 100% 30.06 in 1.2 mi Calm Calm - N/A   Overcast
1:45 AM 32.0 °F - 32.0 °F 100% 30.06 in 1.2 mi Calm Calm - N/A   Overcast
2:15 AM 32.0 °F - 32.0 °F 100% 30.04 in 1.2 mi SE 2.2 mph - N/A   Overcast
2:45 AM 32.0 °F - 32.0 °F 100% 30.04 in 1.2 mi SE 2.2 mph - N/A   Overcast
3:15 AM 32.0 °F - 32.0 °F 100% 30.04 in 1.2 mi Calm Calm - N/A   Overcast
3:45 AM 32.0 °F - 32.0 °F 100% 30.04 in 1.2 mi Calm Calm - N/A   Overcast
4:15 AM 32.0 °F 27.6 °F 32.0 °F 100% 30.04 in 1.2 mi WNW 4.5 mph - N/A   Overcast
4:45 AM 32.0 °F 27.6 °F 32.0 °F 100% 30.04 in 1.2 mi WNW 4.5 mph - N/A   Overcast
5:15 AM 32.0 °F - 32.0 °F 100% 30.04 in 1.2 mi Calm Calm - N/A   Overcast
5:45 AM - - - N/A% - 1.9 mi Variable 2.2 mph - N/A   Overcast
6:15 AM 30.2 °F - 30.2 °F 100% 30.04 in 1.2 mi SE 2.2 mph - N/A   Overcast
6:45 AM 33.8 °F 29.7 °F 33.8 °F 100% 30.01 in 1.9 mi South 4.5 mph - N/A   Overcast
7:15 AM 37.4 °F 29.9 °F 33.8 °F 87% 30.01 in 1.9 mi South 11.2 mph - N/A   Overcast
7:45 AM 37.4 °F 29.9 °F 33.8 °F 87% 30.01 in 3.1 mi South 11.2 mph - N/A   Overcast
8:00 AM - - - N/A% - 1.9 mi Variable 2.2 mph - N/A   Overcast
8:15 AM 35.6 °F - 33.8 °F 93% 30.04 in 5.0 mi SW 2.2 mph - N/A   Unknown
8:45 AM 35.6 °F 31.8 °F 35.6 °F 100% 30.04 in 3.7 mi SSW 4.5 mph - N/A   Unknown
9:15 AM 35.6 °F 28.7 °F 33.8 °F 93% 30.04 in 5.0 mi South 8.9 mph - N/A   Unknown
9:45 AM 37.4 °F 32.2 °F 35.6 °F 93% 30.04 in 5.0 mi SSW 6.7 mph - N/A   Unknown
10:15 AM 39.2 °F 36.0 °F 35.6 °F 87% 30.04 in 5.0 mi SSW 4.5 mph - N/A   Unknown
10:45 AM 41.0 °F 36.5 °F 37.4 °F 87% 30.04 in 5.0 mi SSW 6.7 mph - N/A   Unknown
11:15 AM 44.6 °F 37.6 °F 39.2 °F 81% 30.04 in - South 15.7 mph - N/A   Clear
11:45 AM - - - N/A% - - South 8.9 mph - N/A   Clear
12:15 PM 48.2 °F - 41.0 °F 76% 30.01 in - SSW 11.2 mph - N/A   Clear
12:45 PM 48.2 °F - 41.0 °F 76% 30.01 in - SSW 11.2 mph - N/A   Clear
1:15 PM 50.0 °F - 41.0 °F 71% 29.98 in - SW 11.2 mph - N/A   Clear
1:45 PM 50.0 °F - 39.2 °F 66% 29.98 in - South 11.2 mph - N/A   Clear
2:15 PM 50.0 °F - 41.0 °F 71% 29.98 in - South 11.2 mph - N/A   Clear
2:45 PM - - - N/A% - - South 8.9 mph - N/A   Clear
3:15 PM 48.2 °F - 39.2 °F 71% 29.98 in - South 8.9 mph - N/A   Clear
3:45 PM 46.4 °F 42.0 °F 39.2 °F 76% 29.98 in - South 8.9 mph - N/A   Clear
4:15 PM 46.4 °F 43.0 °F 39.2 °F 76% 29.98 in - South 6.7 mph - N/A   Clear
4:45 PM 44.6 °F 40.8 °F 39.2 °F 81% 30.01 in - South 6.7 mph - N/A   Clear
5:15 PM 42.8 °F 37.6 °F 37.4 °F 81% 29.98 in - South 8.9 mph - N/A   Clear
5:45 PM - - - N/A% - 3.1 mi South 8.9 mph - N/A   Clear
6:15 PM 42.8 °F 38.7 °F 39.2 °F 87% 29.98 in - SSE 6.7 mph - N/A   Clear
6:45 PM 42.8 °F 38.7 °F 39.2 °F 87% 29.98 in - South 6.7 mph - N/A   Clear
7:15 PM 42.8 °F 40.2 °F 39.2 °F 87% 29.98 in - South 4.5 mph - N/A   Clear
7:45 PM 42.8 °F 40.2 °F 39.2 °F 87% 29.98 in - South 4.5 mph - N/A   Clear
8:15 PM 42.8 °F 40.2 °F 39.2 °F 87% 29.95 in - SSE 4.5 mph - N/A   Clear
8:45 PM - - - N/A% - 3.1 mi South 6.7 mph - N/A   Clear
9:15 PM 42.8 °F 37.6 °F 39.2 °F 87% 29.95 in - SSE 8.9 mph - N/A   Clear
9:45 PM 41.0 °F 38.1 °F 39.2 °F 93% 29.95 in 5.0 mi SSE 4.5 mph - N/A   Unknown
10:15 PM 39.2 °F - 37.4 °F 93% 29.95 in 5.0 mi SE 2.2 mph - N/A   Unknown
10:45 PM 42.8 °F - 39.2 °F 87% 29.95 in 5.0 mi SE 2.2 mph - N/A   Unknown
11:15 PM 41.0 °F 38.1 °F 39.2 °F 93% 29.92 in 3.7 mi SE 4.5 mph - N/A   Unknown
11:45 PM - - - N/A% - 1.6 mi North - - N/A   Scattered Clouds